This demonstration page uses our WeatherBlox Daily Observations layout. Learn more.

Left ArrowRight Arrow

41.86663, -103.66717

Hourly Observations for September 23, 2021

Temp ( °F °C ) Dew Point ( °F °C ) Humidity (%) Winds ( mph kmh ) Pressure ( in mb ) Visibility ( mi km ) Precip ( " mm )
12:53 am 00:53 Clear 51 10.6 34 1.1 52 52 E 8 13 29.93 1014 10 16 N/A
1:53 am 01:53 Clear 51 10.6 33 0.6 50 50 E 9 15 29.91 1013 10 16 N/A
2:53 am 02:53 Clear 50 10 32 undefined 50 50 E 8 13 29.91 1013 10 16 N/A
3:53 am 03:53 Clear 49 9.4 32 undefined 52 52 NNE 5 7 29.89 1012 10 16 N/A
4:53 am 04:53 Clear 41 5 34 1.1 76 76 NW 6 9 29.91 1013 10 16 N/A
5:53 am 05:53 Clear 42 5.6 34 1.1 73 73 NNW 6 9 29.92 1013 10 16 N/A
6:53 am 06:53 Sunny 43 6.1 33 0.6 68 68 NNW 7 11 29.96 1014 10 16 N/A
7:53 am 07:53 Sunny 52 11.1 35 1.7 53 53 NW 10 17 29.96 1015 10 16 N/A
8:53 am 08:53 Sunny 59 15 35 1.7 41 41 WNW 13 20 29.96 1015 10 16 N/A
9:53 am 09:53 Sunny 67 19.4 33 0.6 28 28 WNW 16 26 29.94 1014 10 16 N/A
10:53 am 10:53 Sunny 73 22.8 37 2.8 27 27 W 14 22 29.94 1014 10 16 N/A
11:53 am 11:53 Sunny 82 27.8 28 -2.2 14 14 WNW 16 26 29.91 1013 10 16 N/A
12:53 pm 12:53 Sunny 85 29.4 29 -1.7 13 13 NW 16 26 29.90 1012 10 16 N/A
1:53 pm 13:53 Sunny 86 30 28 -2.2 12 12 NNW 20 31 29.88 1012 10 16 N/A
2:53 pm 14:53 Sunny 84 28.9 28 -2.2 13 13 NW 21 33 29.89 1012 10 16 N/A
3:53 pm 15:53 Sunny 84 28.9 28 -2.2 13 13 NNW 13 20 29.89 1012 10 16 N/A
4:53 pm 16:53 Sunny 82 27.8 30 -1.1 15 15 N 12 19 29.92 1013 10 16 N/A
5:53 pm 17:53 Sunny 79 26.1 34 1.1 20 20 N 6 9 29.93 1014 10 16 N/A
6:53 pm 18:53 Clear 71 21.7 38 3.3 30 30 NE 8 13 29.98 1015 10 16 N/A
7:53 pm 19:53 Clear 64 17.8 39 3.9 40 40 NNE 3 6 29.98 1015 10 16 N/A
8:53 pm 20:53 Clear 60 15.6 37 2.8 42 42 VRB 3 6 29.99 1016 10 16 N/A
9:53 pm 21:53 Clear 59 15 36 2.2 42 42 N N/A 30.00 1016 10 16 N/A
10:53 pm 22:53 Clear 58 14.4 36 2.2 44 44 N N/A 30.01 1016 10 16 N/A
11:53 pm 23:53 Clear 58 14.4 36 2.2 44 44 NNW 3 6 29.99 1016 10 16 N/A

Powered by AerisWeather